This is the latest recevied weather packets stored in our database for station/object N9DRW. If no packets are shown the sender has not sent any weather packets the latest 10 day(s).
| Time | Temp. | Humidity | Pressure | Rain* | Wind** | Luminosity | Snow |
|---|---|---|---|---|---|---|---|
| 1777410726 | 16.67° C | 41% | 0 hPa | 0 mm | - | - | - |
| 1777410126 | 16.67° C | 39% | 0 hPa | 0 mm | - | - | - |
| 1777409526 | 16.67° C | 43% | 0 hPa | 0 mm | - | - | - |
| 1777408926 | 17.22° C | 42% | 0 hPa | 0 mm | - | - | - |
| 1777408330 | 16.67° C | 42% | 0 hPa | 0 mm | - | - | - |
| 1777407727 | 16.67° C | 42% | 0 hPa | 0 mm | - | - | - |
| 1777407126 | 16.67° C | 44% | 0 hPa | 0 mm | - | - | - |
| 1777406526 | 17.22° C | 42% | 0 hPa | 0 mm | - | - | - |
| 1777405926 | 16.67° C | 42% | 0 hPa | 0 mm | - | - | - |
| 1777405326 | 16.67° C | 42% | 0 hPa | 0 mm | - | - | - |
| 1777404726 | 16.67° C | 40% | 0 hPa | 0 mm | - | - | - |
| 1777404126 | 17.22° C | 41% | 0 hPa | 0 mm | - | - | - |
| 1777403526 | 17.22° C | 43% | 0 hPa | 0 mm | - | - | - |
| 1777402925 | 16.67° C | 42% | 0 hPa | 0 mm | - | - | - |
| 1777402326 | 16.67° C | 44% | 0 hPa | 0 mm | - | - | - |
| 1777401726 | 17.22° C | 45% | 0 hPa | 0 mm | - | - | - |
| 1777401126 | 16.67° C | 43% | 0 hPa | 0 mm | - | - | - |
| 1777400526 | 16.11° C | 43% | 0 hPa | 0 mm | - | - | - |
| 1777399925 | 16.11° C | 48% | 0 hPa | 0 mm | - | - | - |
| 1777399326 | 16.11° C | 46% | 0 hPa | 0 mm | - | - | - |
| 1777398726 | 15.56° C | 51% | 0 hPa | 0 mm | - | - | - |
| 1777398126 | 15.56° C | 50% | 0 hPa | 0 mm | - | - | - |
| 1777397526 | 15° C | 48% | 0 hPa | 0 mm | - | - | - |
| 1777396926 | 15° C | 49% | 0 hPa | 0 mm | - | - | - |
| 1777396326 | 15° C | 53% | 0 hPa | 0 mm | - | - | - |
* Rain latest hour (hover to see other rain measurements)
** Current wind speed in m/s (hover to see current wind gust speed)